Total_Precipitation_Accumulation
0.14 0.39 0.75 1.16 2.08 2.33 1.60 0.94 0.71 0.63 0.62 0.55 0.50 0.53 0.72 1.10 1.65 2.46 2.13 1.51 1.49 1.66 1.90 2.22 2.38 2.16 2.01 1.89 2.03 2.03 1.92 1.86 1.79 1.73 1.62 1.56 1.44 1.22 1.06 1.03 1.04 1.09 1.06 0.93 0.96 0.98 0.92 1.01 1.16
0.32 0.60 0.87 1.46 2.17 1.75 1.24 0.82 0.68 0.52 0.49 0.51 0.61 0.68 0.67 0.83 0.82 1.16 1.64 1.64 1.26 1.35 1.68 1.73 2.05 1.99 1.87 1.80 1.91 1.84 1.73 1.63 1.69 1.59 1.48 1.42 1.40 1.18 0.95 0.92 0.97 1.00 0.96 0.94 1.00 1.00 0.99 1.00 1.09
0.50 0.69 1.04 1.64 1.53 0.99 0.78 0.57 0.46 0.45 0.49 0.59 0.71 0.76 0.81 0.95 0.89 1.23 1.54 1.34 1.19 1.24 1.52 1.79 1.92 1.77 1.71 1.62 1.67 1.63 1.58 1.55 1.63 1.53 1.43 1.33 1.26 1.11 0.94 0.88 0.91 0.93 0.94 0.92 0.96 1.06 1.07 1.05 1.08
0.60 0.84 1.01 1.25 0.99 0.49 0.32 0.32 0.33 0.47 0.67 0.85 0.90 0.95 0.98 0.94 0.94 1.21 1.37 1.12 1.07 1.03 1.16 1.49 1.66 1.57 1.58 1.49 1.42 1.52 1.54 1.56 1.58 1.51 1.36 1.36 1.30 1.21 1.02 0.88 0.87 0.94 0.99 1.00 1.02 1.14 1.15 1.05 1.06
0.56 0.93 1.23 1.03 0.65 0.38 0.25 0.24 0.35 0.53 0.72 0.87 0.95 1.17 1.42 1.28 1.03 1.17 1.17 1.07 0.98 0.98 1.06 1.27 1.53 1.45 1.42 1.37 1.34 1.44 1.50 1.51 1.47 1.44 1.25 1.28 1.29 1.17 0.99 0.92 0.89 0.87 0.94 1.05 1.09 1.13 1.12 1.09 1.14
0.74 1.07 1.05 0.77 0.47 0.29 0.26 0.28 0.36 0.50 0.69 0.88 1.21 1.44 1.73 1.68 1.44 1.34 1.17 1.25 1.14 0.97 1.01 1.22 1.49 1.45 1.39 1.37 1.39 1.50 1.55 1.42 1.35 1.34 1.18 1.14 1.15 1.11 1.03 0.99 0.98 0.88 0.94 1.08 1.12 1.11 1.05 1.08 1.20
0.80 0.88 0.67 0.53 0.43 0.30 0.27 0.29 0.38 0.56 0.73 1.00 1.33 1.56 1.71 1.82 1.70 1.52 1.39 1.46 1.57 1.32 1.27 1.31 1.33 1.34 1.41 1.57 1.64 1.68 1.62 1.41 1.33 1.33 1.20 1.07 1.04 1.04 0.99 1.06 1.07 1.00 1.03 1.12 1.19 1.16 1.13 1.16 1.27
0.49 0.59 0.45 0.32 0.40 0.35 0.25 0.27 0.40 0.63 0.83 1.04 1.27 1.50 1.81 1.68 1.60 1.69 1.95 2.17 2.27 2.10 1.92 1.68 1.52 1.58 1.47 1.53 1.74 1.84 1.56 1.36 1.31 1.35 1.25 1.18 1.23 1.23 1.26 1.22 1.20 1.26 1.36 1.41 1.46 1.37 1.31 1.39 1.46
0.32 0.48 0.37 0.24 0.26 0.29 0.24 0.28 0.37 0.45 0.68 0.95 1.16 1.28 1.33 1.38 1.62 1.96 2.41 2.62 2.52 2.57 2.37 2.08 1.87 1.69 1.69 1.68 1.74 1.99 1.75 1.52 1.60 1.77 1.70 1.75 2.10 1.98 2.01 1.61 1.56 1.71 1.87 1.96 2.00 1.94 1.81 1.71 1.65
0.29 0.36 0.22 0.12 0.09 0.13 0.18 0.27 0.35 0.51 0.99 1.58 1.56 1.26 1.10 1.35 1.70 1.98 2.36 2.77 2.47 2.60 2.30 2.16 2.14 1.83 1.77 1.87 2.25 2.67 2.28 2.10 2.17 2.40 2.29 2.59 2.66 2.52 1.88 1.86 2.15 2.33 2.64 2.76 2.78 2.81 2.48 2.12 1.96
0.19 0.18 0.12 0.05 0.05 0.05 0.09 0.19 0.28 0.58 1.11 1.81 1.99 1.55 1.40 1.52 1.91 1.93 2.28 2.68 2.61 2.49 2.37 2.12 2.37 2.12 2.18 2.49 2.56 2.73 2.78 2.63 2.60 2.65 2.61 2.86 2.57 2.24 2.14 2.47 2.84 3.08 3.21 3.36 3.37 3.29 2.77 2.73 2.93
0.12 0.09 0.06 0.04 0.04 0.04 0.14 0.23 0.34 0.50 1.00 1.30 1.30 1.22 1.36 1.59 1.93 2.14 2.30 2.72 2.64 2.42 2.39 2.40 2.52 2.59 2.75 2.77 2.66 2.54 2.33 2.29 2.44 2.58 2.53 2.68 2.78 2.78 2.73 2.94 3.06 3.32 3.68 4.03 3.92 3.91 3.59 3.52 3.28
0.09 0.11 0.10 0.08 0.07 0.09 0.15 0.21 0.34 0.53 0.72 0.81 0.79 0.98 1.40 1.70 2.11 2.47 2.89 3.22 3.17 3.01 2.91 2.97 3.14 3.10 3.06 3.04 2.77 2.36 2.19 2.04 2.08 2.20 2.30 2.25 2.58 2.88 2.90 2.77 2.84 2.79 3.01 3.43 4.01 3.92 4.07 3.98 3.58
0.08 0.08 0.10 0.13 0.10 0.14 0.17 0.19 0.39 0.67 0.70 0.74 0.90 1.16 1.55 1.99 2.37 2.63 3.48 3.95 4.08 3.96 3.79 3.64 3.73 3.35 3.13 3.04 2.78 2.53 2.24 2.22 2.10 2.01 1.94 2.12 2.38 2.66 2.64 2.62 2.85 2.88 2.79 2.93 3.41 3.55 3.94 3.92 3.55
0.12 0.15 0.16 0.17 0.11 0.12 0.17 0.40 0.59 0.70 0.89 0.94 1.11 1.32 1.64 2.22 2.69 3.16 3.76 4.54 4.91 5.08 4.69 4.12 3.86 3.58 3.37 3.19 2.85 2.51 2.34 2.16 2.26 2.21 2.02 2.05 2.16 2.38 2.38 2.49 2.49 2.54 2.44 2.52 2.74 2.93 3.20 3.20 3.06
0.18 0.30 0.39 0.23 0.14 0.13 0.23 0.69 0.81 0.68 1.02 1.36 1.30 1.57 1.95 2.47 2.95 3.63 4.35 5.20 5.71 5.86 5.31 4.59 3.87 3.93 3.85 3.60 2.99 2.55 2.36 2.28 2.25 2.15 1.95 1.80 1.89 1.90 2.01 2.04 2.01 2.03 1.89 1.99 2.37 2.43 2.69 2.91 2.94
0.19 0.29 0.37 0.32 0.19 0.17 0.27 0.69 0.86 0.69 0.91 1.23 1.45 1.69 2.10 2.46 2.80 3.43 4.08 4.91 5.50 5.99 5.82 5.22 5.06 4.85 4.20 3.52 2.94 2.54 2.33 2.28 2.09 2.03 1.93 1.78 1.68 1.72 1.87 2.00 2.03 1.72 1.71 1.79 1.67 2.14 2.40 2.62 2.66
0.21 0.20 0.27 0.36 0.26 0.25 0.35 0.56 0.83 0.87 1.10 1.42 1.55 1.67 1.93 2.11 2.42 2.90 3.40 3.87 4.47 4.95 4.87 4.82 4.98 4.56 3.94 3.34 2.90 2.63 2.39 2.12 1.95 1.90 1.94 1.83 1.74 1.76 2.01 1.84 1.76 1.59 1.85 2.09 2.16 2.49 2.43 2.34 2.38
0.15 0.16 0.24 0.30 0.26 0.33 0.46 0.61 0.82 0.98 1.26 1.53 1.53 1.48 1.56 1.80 2.06 2.31 2.68 3.05 3.27 3.45 3.56 3.86 4.08 3.82 3.38 3.00 2.55 2.37 2.31 2.09 1.89 1.80 1.67 1.80 1.73 1.91 2.17 1.93 2.20 1.91 1.91 2.04 2.07 2.28 2.23 2.02 1.96
0.12 0.14 0.24 0.31 0.26 0.30 0.46 0.76 0.91 0.99 1.05 1.19 1.31 1.23 1.34 1.64 1.68 1.78 1.93 2.25 2.40 2.64 2.94 3.28 3.50 3.33 2.80 2.59 2.42 2.31 2.25 2.08 2.03 1.95 1.96 1.76 1.74 1.89 1.84 2.15 1.98 2.00 2.12 2.15 2.23 2.36 2.34 2.08 2.00
0.11 0.12 0.17 0.25 0.25 0.34 0.49 1.06 1.12 0.98 0.89 0.82 0.99 1.05 1.06 1.26 1.40 1.46 1.48 1.59 1.91 2.46 2.65 2.54 2.77 2.95 2.68 2.58 2.50 2.40 2.36 2.15 2.20 2.14 2.04 1.71 1.60 1.64 1.76 1.84 1.84 2.07 1.88 2.20 2.45 2.40 2.47 2.45 2.21
0.10 0.09 0.10 0.14 0.21 0.50 0.59 1.13 1.19 1.02 0.99 0.80 0.78 0.82 0.79 0.78 0.96 1.11 1.13 1.23 1.42 1.72 2.02 2.28 2.56 2.70 2.61 2.48 2.26 2.11 1.93 1.85 1.87 1.88 1.88 1.75 1.67 1.57 1.63 1.71 1.90 2.07 1.86 2.32 1.99 2.15 2.37 2.53 2.31
0.05 0.05 0.07 0.13 0.22 0.45 0.56 0.95 1.18 1.01 1.15 0.86 0.58 0.47 0.42 0.44 0.56 0.74 0.86 0.98 1.02 1.22 1.61 2.07 2.47 2.74 2.59 2.28 2.10 2.13 1.97 1.91 1.84 1.78 2.01 1.88 1.77 1.63 1.51 1.73 1.93 1.97 1.87 2.03 2.13 2.44 2.31 2.25 2.22
0.03 0.06 0.15 0.27 0.43 0.80 0.76 0.81 1.11 0.87 0.70 0.52 0.39 0.31 0.31 0.34 0.39 0.52 0.63 0.78 0.87 1.01 1.28 1.65 2.01 2.27 2.29 2.14 2.05 2.11 2.14 2.11 1.96 1.78 1.80 1.67 1.65 1.60 1.52 1.68 1.91 1.85 1.82 1.98 2.06 2.22 2.21 2.28 2.36
0.03 0.07 0.29 0.54 0.79 0.97 0.61 0.79 1.13 0.70 0.54 0.41 0.33 0.29 0.27 0.26 0.37 0.51 0.60 0.70 0.74 0.79 0.99 1.31 1.54 1.71 1.91 2.00 2.01 1.97 2.10 2.14 1.94 1.72 1.70 1.69 1.53 1.49 1.53 1.66 1.91 1.85 1.91 1.96 2.16 2.19 2.15 2.22 2.26
0.04 0.05 0.15 0.26 0.39 0.56 0.62 1.24 1.10 0.55 0.42 0.34 0.28 0.27 0.24 0.24 0.34 0.48 0.59 0.63 0.63 0.65 0.85 1.05 1.25 1.48 1.73 1.88 1.95 1.92 1.87 1.75 1.70 1.81 1.72 1.70 1.66 1.60 1.54 1.65 1.69 1.72 1.82 1.88 2.32 2.11 2.03 2.12 2.07
0.04 0.05 0.07 0.11 0.14 0.40 0.74 0.92 0.64 0.36 0.35 0.37 0.32 0.31 0.29 0.33 0.43 0.51 0.65 0.72 0.63 0.65 0.81 0.90 1.08 1.27 1.43 1.67 1.84 1.78 1.77 1.66 1.65 1.71 1.66 1.61 1.74 1.70 1.63 1.57 1.59 1.69 1.85 2.04 2.24 2.13 2.16 2.26 2.04
0.05 0.04 0.06 0.07 0.13 0.30 0.59 0.83 0.86 0.57 0.43 0.38 0.38 0.39 0.38 0.42 0.55 0.64 0.67 0.73 0.71 0.72 0.81 0.90 1.04 1.15 1.20 1.36 1.46 1.39 1.59 1.64 1.76 1.74 1.65 1.57 1.57 1.61 1.66 1.69 1.67 1.76 1.87 2.07 2.25 2.25 2.38 2.44 2.24
0.06 0.05 0.04 0.05 0.07 0.18 0.45 0.64 0.63 0.57 0.52 0.40 0.37 0.45 0.53 0.51 0.64 0.68 0.68 0.70 0.67 0.71 0.76 0.80 0.95 1.07 1.12 1.26 1.34 1.40 1.49 1.57 1.65 1.67 1.64 1.63 1.64 1.66 1.68 1.75 1.78 1.80 1.86 2.05 2.21 2.11 2.35 2.46 2.47
0.08 0.10 0.09 0.08 0.07 0.11 0.22 0.37 0.35 0.40 0.46 0.39 0.39 0.51 0.61 0.46 0.51 0.66 0.73 0.78 0.61 0.65 0.72 0.75 0.83 0.93 1.00 1.21 1.38 1.47 1.60 1.63 1.57 1.55 1.73 1.77 1.77 1.76 1.76 1.83 1.94 1.92 1.95 2.08 2.07 1.95 2.05 2.22 2.39